Beckley, WV

8:12 PM EDT on April 30, 2017 (GMT -0400)
Raleigh County Memorial

Weather History for KBKW - November, 2013

Change the Weather History Date:

Sunday, November 17, 2013

  Actual Average Record
Temperature  
Mean Temperature 58 °F 44 °F  
Max Temperature 65 °F 53 °F 79 °F (1958)
Min Temperature 51 °F 35 °F 7 °F (1933)
Degree Days  
Heating Degree Days 7 22  
Month to date heating degree days 347 319  
Since 1 July heating degree days 780 825  
Cooling Degree Days 0 0  
Month to date cooling degree days 0 0  
Year to date cooling degree days 615 556  
Growing Degree Days 7 (Base 50)    
Moisture  
Dew Point 50 °F    
Average Humidity 73    
Maximum Humidity 86    
Minimum Humidity 60    
Precipitation  
Precipitation 0.29 in 0.10 in 0.68 in (1959)
Month to date precipitation 1.32 1.64  
Year to date precipitation 34.52 36.88  
Snow  
Snow 0.00 in - - ()
Month to date snowfall 1.7  
Since 1 September snowfall 1.7  
Snow Depth 0.00 in    
Sea Level Pressure  
Sea Level Pressure 29.94 in    
Wind  
Wind Speed 12 mph (SSE)    
Max Wind Speed 28 mph    
Max Gust Speed 38 mph    
Visibility 9 miles    
Events Rain    
T = Trace of Precipitation, MM = Missing Value Source: NWS Daily Summary

Daily Weather History Graph

Daily Weather History Graph

Search for Another Location

Airport or City:

Trip Planner

Search our weather history database for the weather conditions in past years. The results will help you decide how hot, cold, wet, or windy it might be!

Date:

Astronomy

Nov. 17, 2013 Rise Set
Actual Time 7:07 AM EST 5:11 PM EST
Civil Twilight 6:38 AM EST 5:39 PM EST
Nautical Twilight 6:07 AM EST 6:11 PM EST
Astronomical Twilight 5:35 AM EST 6:42 PM EST
Moon 5:27 PM EST (11/17) 7:00 AM EST (11/17)
Length of Visible Light 11h 00m
Length of Day
10h 04m
Full, 100% of the Moon is Illuminated
Nov 17
Full
Nov 25
Last Quarter
Dec 2
New
Dec 9
First Quarter
Dec 17
Full

Hourly Weather History & Observations

Time (EST) Temp. Dew Point Humidity Pressure Visibility Wind Dir Wind Speed Gust Speed Precip Events Conditions
12:51 AM 51.1 °F 46.0 °F 83% 30.10 in 10.0 mi SSE 16.1 mph 25.3 mph N/A   Scattered Clouds
1:51 AM 51.1 °F 46.0 °F 83% 30.08 in 10.0 mi SSE 17.3 mph 23.0 mph N/A   Clear
2:51 AM 52.0 °F 46.9 °F 83% 30.07 in 10.0 mi SSE 12.7 mph - N/A   Mostly Cloudy
3:51 AM 52.0 °F 46.9 °F 83% 30.05 in 10.0 mi SSE 10.4 mph - N/A   Clear
4:51 AM 53.1 °F 46.9 °F 80% 30.06 in 10.0 mi South 10.4 mph - N/A   Scattered Clouds
5:51 AM 52.0 °F 46.9 °F 83% 30.07 in 10.0 mi SSE 8.1 mph - N/A   Partly Cloudy
6:51 AM 52.0 °F 46.9 °F 83% 30.08 in 10.0 mi SE 4.6 mph - N/A   Clear
7:51 AM 54.0 °F 48.0 °F 80% 30.08 in 10.0 mi SSE 4.6 mph - N/A   Clear
8:51 AM 55.0 °F 48.9 °F 80% 30.06 in 10.0 mi SSE 8.1 mph 16.1 mph N/A   Clear
9:51 AM 57.9 °F 50.0 °F 75% 30.04 in 10.0 mi SE 10.4 mph - N/A   Clear
10:51 AM 59.0 °F 50.0 °F 72% 30.04 in 10.0 mi SSE 10.4 mph 17.3 mph N/A   Partly Cloudy
11:51 AM 63.0 °F 51.1 °F 65% 30.00 in 10.0 mi SE 12.7 mph 19.6 mph N/A   Mostly Cloudy
12:51 PM 63.0 °F 50.0 °F 63% 29.96 in 10.0 mi SE 9.2 mph - N/A   Overcast
1:51 PM 64.9 °F 50.0 °F 58% 29.90 in 10.0 mi SE 11.5 mph 18.4 mph N/A   Scattered Clouds
2:51 PM 64.9 °F 51.1 °F 61% 29.87 in 10.0 mi SSE 10.4 mph 19.6 mph N/A   Mostly Cloudy
3:51 PM 62.1 °F 50.0 °F 65% 29.89 in 10.0 mi South 11.5 mph - 0.00 in Rain Light Rain
4:51 PM 57.9 °F 52.0 °F 81% 29.83 in 10.0 mi SSE 18.4 mph 27.6 mph 0.07 in Rain Light Rain
5:51 PM 57.9 °F 53.1 °F 84% 29.83 in 10.0 mi SSE 13.8 mph 24.2 mph 0.00 in Rain Light Rain
6:51 PM 57.0 °F 53.1 °F 87% 29.83 in 5.0 mi SSE 13.8 mph 21.9 mph 0.02 in Rain Rain
7:51 PM 57.9 °F 54.0 °F 87% 29.81 in 10.0 mi SSE 10.4 mph 17.3 mph 0.02 in Rain Light Rain
8:51 PM 59.0 °F 54.0 °F 83% 29.78 in 10.0 mi South 15.0 mph - 0.00 in   Overcast
9:34 PM 60.8 °F 53.6 °F 77% 29.82 in 10.0 mi South 12.7 mph - N/A   Overcast
9:51 PM 60.1 °F 54.0 °F 80% 29.77 in 10.0 mi South 9.2 mph - N/A   Overcast
10:51 PM 62.1 °F 55.0 °F 78% 29.74 in 10.0 mi SSW 13.8 mph - 0.00 in Rain Light Rain
11:20 PM 59.0 °F 53.6 °F 82% 29.82 in 1.8 mi WNW 23.0 mph 38.0 mph 0.00 in Rain Heavy Rain
11:29 PM 57.2 °F 51.8 °F 82% 29.83 in 2.5 mi WNW 12.7 mph 38.0 mph 0.17 in Rain Heavy Rain
11:36 PM 55.4 °F 51.8 °F 88% 29.83 in 9.0 mi NW 10.4 mph 23.0 mph 0.17 in Rain Light Rain
11:51 PM 57.0 °F 52.0 °F 83% 29.80 in 9.0 mi NNW 19.6 mph 24.2 mph 0.18 in Rain Light Rain